| time (UTC) | temp F | wind direction | speed knots | gust knots | rain 1hr in | rain 24hr in | rain mn in | humidity % | barometer mb |
| 20260901063303 | 77 | 159 | 0.0 | 0.0 | 0.00 | 0.00 | 0.00 | 67 | 1016.3 |
| 20260901062804 | 77 | 136 | 0.0 | 0.0 | 0.00 | 0.00 | 0.00 | 67 | 1016.4 |
| 20260901062309 | 77 | 145 | 0.0 | 0.0 | 0.00 | 0.00 | 0.00 | 67 | 1016.4 |
| 20260901061804 | 78 | 122 | 0.9 | 0.0 | 0.00 | 0.00 | 0.00 | 66 | 1016.4 |
| 20260901061304 | 78 | 139 | 0.9 | 2.6 | 0.00 | 0.00 | 0.00 | 66 | 1016.4 |
| 20260901060804 | 78 | 86 | 0.0 | 2.6 | 0.00 | 0.00 | 0.00 | 66 | 1016.2 |
| 20260901055803 | 78 | 122 | 0.9 | 2.6 | 0.00 | 0.00 | 0.00 | 65 | 1016.2 |
| 20260901055306 | 78 | 100 | 1.7 | 2.6 | 0.00 | 0.00 | 0.00 | 66 | 1016.2 |
| 20260901054804 | 78 | 126 | 0.9 | 4.3 | 0.00 | 0.00 | 0.00 | 65 | 1016.3 |
| 20260901054303 | 78 | 124 | 0.9 | 4.3 | 0.00 | 0.00 | 0.00 | 65 | 1016.3 |
| 20260901053304 | 78 | 110 | 0.9 | 4.3 | 0.00 | 0.00 | 0.00 | 64 | 1016.3 |
| 20260901052804 | 79 | 123 | 0.9 | 4.3 | 0.00 | 0.00 | 0.00 | 65 | 1016.5 |
| 20260901052306 | 79 | 71 | 0.9 | 2.6 | 0.00 | 0.00 | 0.00 | 64 | 1016.5 |
| 20260901051804 | 79 | 138 | 1.7 | 2.6 | 0.00 | 0.00 | 0.00 | 64 | 1016.5 |
| 20260901050823 | 79 | 145 | 1.7 | 6.1 | 0.00 | 0.00 | 0.00 | 64 | 1016.3 |
| 20260901050304 | 79 | 258 | 0.9 | 2.6 | 0.00 | 0.00 | 0.00 | 63 | 1016.3 |
| 20260901045306 | 79 | 106 | 0.9 | 2.6 | 0.00 | 0.00 | 0.00 | 63 | 1016.3 |
| 20260901044804 | 79 | 240 | 0.9 | 5.2 | 0.00 | 0.00 | 0.00 | 62 | 1016.4 |
| 20260901044304 | 80 | 100 | 0.9 | 5.2 | 0.00 | 0.00 | 0.00 | 62 | 1016.4 |
| 20260901043304 | 80 | 100 | 0.0 | 1.7 | 0.00 | 0.00 | 0.00 | 61 | 1016.4 |
| 20260901041803 | 80 | 222 | 1.7 | 2.6 | 0.00 | 0.00 | 0.00 | 60 | 1016.4 |
| 20260901041304 | 80 | 117 | 2.6 | 4.3 | 0.00 | 0.00 | 0.00 | 60 | 1016.4 |
| 20260901040804 | 81 | 108 | 3.5 | 7.0 | 0.00 | 0.00 | 0.00 | 59 | 1016.4 |
| 20260901040304 | 81 | 140 | 2.6 | 6.1 | 0.00 | 0.00 | 0.00 | 59 | 1016.4 |
| 20260901035803 | 81 | 83 | 1.7 | 6.1 | 0.00 | 0.00 | 0.00 | 58 | 1016.4 |
| 20260901035305 | 81 | 100 | 0.9 | 5.2 | 0.00 | 0.00 | 0.00 | 58 | 1016.4 |
| 20260901034304 | 81 | 85 | 2.6 | 5.2 | 0.00 | 0.00 | 0.00 | 57 | 1016.6 |
| 20260901033804 | 81 | 95 | 2.6 | 5.2 | 0.00 | 0.00 | 0.00 | 57 | 1016.6 |
| 20260901033303 | 81 | 120 | 1.7 | 4.3 | 0.00 | 0.00 | 0.00 | 57 | 1016.6 |
| 20260901032306 | 81 | 181 | 0.9 | 4.3 | 0.00 | 0.00 | 0.00 | 57 | 1016.3 |
| 20260901031805 | 81 | 197 | 0.9 | 4.3 | 0.00 | 0.00 | 0.00 | 57 | 1016.3 |
| 20260901030803 | 81 | 140 | 0.0 | 2.6 | 0.00 | 0.00 | 0.00 | 56 | 1016.2 |
| 20260901030304 | 82 | 150 | 0.0 | 1.7 | 0.00 | 0.00 | 0.00 | 56 | 1016.2 |
| 20260901025803 | 82 | 341 | 0.0 | 2.6 | 0.00 | 0.00 | 0.00 | 56 | 1016.2 |
| 20260901025306 | 82 | 102 | 0.9 | 4.3 | 0.00 | 0.00 | 0.00 | 56 | 1016.2 |
| 20260901024803 | 82 | 109 | 0.9 | 4.3 | 0.00 | 0.00 | 0.00 | 56 | 1016.1 |
| 20260901023803 | 82 | 159 | 0.9 | 4.3 | 0.00 | 0.00 | 0.00 | 56 | 1016.1 |
| 20260901023304 | 83 | 145 | 0.9 | 5.2 | 0.00 | 0.00 | 0.00 | 56 | 1016.1 |
| 20260901022306 | 83 | 141 | 0.9 | 0.0 | 0.00 | 0.00 | 0.00 | 54 | 1016.2 |
| 20260901021803 | 83 | 339 | 0.9 | 5.2 | 0.00 | 0.00 | 0.00 | 55 | 1016.2 |
| 20260901021303 | 84 | 148 | 0.0 | 1.7 | 0.00 | 0.00 | 0.00 | 54 | 1016.2 |
| 20260901020303 | 84 | 97 | 0.0 | 0.0 | 0.00 | 0.00 | 0.00 | 54 | 1015.5 |
| 20260901015803 | 84 | 83 | 0.0 | 0.0 | 0.00 | 0.00 | 0.00 | 54 | 1015.5 |
| 20260901015305 | 85 | 102 | 0.0 | 1.7 | 0.00 | 0.00 | 0.00 | 54 | 1015.5 |
| 20260901014804 | 85 | 136 | 0.0 | 0.0 | 0.00 | 0.00 | 0.00 | 55 | 1015.8 |
| 20260901014303 | 85 | 60 | 0.0 | 0.0 | 0.00 | 0.00 | 0.00 | 53 | 1015.9 |
| 20260901013803 | 85 | 100 | 0.0 | 0.0 | 0.00 | 0.00 | 0.00 | 52 | 1015.9 |
| 20260901013304 | 85 | 321 | 0.0 | 2.6 | 0.00 | 0.00 | 0.00 | 50 | 1015.9 |
| 20260901012804 | 85 | 327 | 0.0 | 2.6 | 0.00 | 0.00 | 0.00 | 50 | 1015.6 |
| 20260901011804 | 86 | 353 | 0.0 | 0.0 | 0.00 | 0.00 | 0.00 | 49 | 1015.5 |
| 20260901010803 | 86 | 173 | 0.9 | 2.6 | 0.00 | 0.00 | 0.00 | 48 | 1015.3 |
| 20260901010304 | 87 | 119 | 0.9 | 2.6 | 0.00 | 0.00 | 0.00 | 47 | 1015.2 |
| 20260901005804 | 87 | 106 | 0.9 | 2.6 | 0.00 | 0.00 | 0.00 | 45 | 1015.2 |
| 20260901005306 | 87 | 64 | 0.0 | 2.6 | 0.00 | 0.00 | 0.00 | 43 | 1015.2 |
| 20260901004803 | 88 | 289 | 0.9 | 0.0 | 0.00 | 0.00 | 0.00 | 41 | 1015.1 |
| 20260901004303 | 88 | 188 | 1.7 | 4.3 | 0.00 | 0.00 | 0.00 | 41 | 1015.1 |
| 20260901003804 | 88 | 114 | 1.7 | 4.3 | 0.00 | 0.00 | 0.00 | 40 | 1015.1 |
| 20260901003304 | 89 | 124 | 1.7 | 2.6 | 0.00 | 0.00 | 0.00 | 39 | 1015.1 |
| 20260901002803 | 89 | 331 | 1.7 | 2.6 | 0.00 | 0.00 | 0.00 | 38 | 1015.2 |
| 20260901002305 | 89 | 103 | 1.7 | 4.3 | 0.00 | 0.00 | 0.00 | 37 | 1015.2 |
| 20260901001804 | 90 | 145 | 0.9 | 4.3 | 0.00 | 0.00 | 0.00 | 37 | 1015.2 |
| 20260901001304 | 90 | 124 | 0.9 | 4.3 | 0.00 | 0.00 | 0.00 | 37 | 1015.2 |
| 20260901000304 | 91 | 145 | 1.7 | 4.3 | 0.00 | 0.00 | 0.00 | 35 | 1015.2 |
| 20260831235804 | 91 | 150 | 1.7 | 4.3 | 0.00 | 0.00 | 0.00 | 35 | 1015.2 |
| 20260831235306 | 92 | 122 | 0.9 | 4.3 | 0.00 | 0.00 | 0.00 | 34 | 1015.2 |
| 20260831234804 | 92 | 100 | 1.7 | 4.3 | 0.00 | 0.00 | 0.00 | 34 | 1015.4 |
| 20260831234304 | 93 | 119 | 1.7 | 5.2 | 0.00 | 0.00 | 0.00 | 34 | 1015.4 |
| 20260831233804 | 93 | 84 | 1.7 | 7.0 | 0.00 | 0.00 | 0.00 | 34 | 1015.4 |
| 20260831232803 | 94 | 145 | 2.6 | 6.1 | 0.00 | 0.00 | 0.00 | 31 | 1015.0 |
| 20260831232305 | 95 | 100 | 1.7 | 6.1 | 0.00 | 0.00 | 0.00 | 31 | 1014.9 |
| 20260831231803 | 96 | 91 | 1.7 | 5.2 | 0.00 | 0.00 | 0.00 | 29 | 1014.9 |
| 20260831231304 | 97 | 122 | 1.7 | 4.3 | 0.00 | 0.00 | 0.00 | 28 | 1014.9 |
| 20260831230304 | 99 | 146 | 1.7 | 2.6 | 0.00 | 0.00 | 0.00 | 25 | 1015.1 |
| 20260831225306 | 102 | 78 | 1.7 | 4.3 | 0.00 | 0.00 | 0.00 | 24 | 1015.1 |
| 20260831224804 | 103 | 135 | 1.7 | 7.0 | 0.00 | 0.00 | 0.00 | 24 | 1015.2 |
| 20260831224304 | 103 | 144 | 1.7 | 4.3 | 0.00 | 0.00 | 0.00 | 24 | 1015.2 |
| 20260831223803 | 102 | 242 | 2.6 | 2.6 | 0.00 | 0.00 | 0.00 | 24 | 1015.2 |
| 20260831223304 | 102 | 170 | 1.7 | 6.1 | 0.00 | 0.00 | 0.00 | 24 | 1015.2 |
| 20260831222807 | 101 | 135 | 4.3 | 6.1 | 0.00 | 0.00 | 0.00 | 31 | 1015.6 |
| 20260831195804 | 100 | 145 | 4.3 | 7.0 | 0.00 | 0.00 | 0.00 | 31 | 1015.6 |
| 20260831195306 | 100 | 122 | 4.3 | 7.8 | 0.00 | 0.00 | 0.00 | 31 | 1015.6 |
| 20260831194804 | 99 | 253 | 4.3 | 13.0 | 0.00 | 0.00 | 0.00 | 30 | 1015.8 |
| 20260831194304 | 100 | 220 | 4.3 | 13.0 | 0.00 | 0.00 | 0.00 | 29 | 1015.8 |
| 20260831193803 | 100 | 145 | 2.6 | 6.1 | 0.00 | 0.00 | 0.00 | 31 | 1015.8 |
| 20260831192803 | 100 | 122 | 2.6 | 6.1 | 0.00 | 0.00 | 0.00 | 33 | 1016.2 |
| 20260831192305 | 100 | 95 | 1.7 | 5.2 | 0.00 | 0.00 | 0.00 | 32 | 1016.2 |
| 20260831191804 | 99 | 302 | 2.6 | 6.1 | 0.00 | 0.00 | 0.00 | 32 | 1016.2 |
| 20260831191304 | 99 | 151 | 4.3 | 6.1 | 0.00 | 0.00 | 0.00 | 33 | 1016.2 |
| 20260831190804 | 99 | 212 | 4.3 | 5.2 | 0.00 | 0.00 | 0.00 | 33 | 1016.4 |
| 20260831185804 | 98 | 280 | 2.6 | 5.2 | 0.00 | 0.00 | 0.00 | 35 | 1016.4 |
| 20260831185306 | 98 | 212 | 1.7 | 8.7 | 0.00 | 0.00 | 0.00 | 36 | 1016.4 |
| 20260831184803 | 100 | 145 | 2.6 | 8.7 | 0.00 | 0.00 | 0.00 | 35 | 1016.4 |
| 20260831183804 | 100 | 258 | 1.7 | 5.2 | 0.00 | 0.00 | 0.00 | 38 | 1016.4 |
| 20260831183304 | 99 | 107 | 2.6 | 5.2 | 0.00 | 0.00 | 0.00 | 38 | 1016.4 |
| 20260831182804 | 98 | 302 | 4.3 | 6.1 | 0.00 | 0.00 | 0.00 | 40 | 1016.6 |
| 20260831181804 | 97 | 78 | 5.2 | 7.8 | 0.00 | 0.00 | 0.00 | 41 | 1016.6 |
| 20260831181304 | 95 | 60 | 4.3 | 11.3 | 0.00 | 0.00 | 0.00 | 40 | 1016.6 |
| 20260831180804 | 95 | 122 | 4.3 | 11.3 | 0.00 | 0.00 | 0.00 | 40 | 1016.9 |
| 20260831180304 | 94 | 194 | 4.3 | 13.0 | 0.00 | 0.00 | 0.00 | 43 | 1016.9 |
| 20260831175306 | 94 | 218 | 2.6 | 10.4 | 0.00 | 0.00 | 0.00 | 44 | 1016.9 |
| 20260831174304 | 93 | 3 | 1.7 | 2.6 | 0.00 | 0.00 | 0.00 | 45 | 1017.0 |
| 20260831173803 | 92 | 78 | 2.6 | 5.2 | 0.00 | 0.00 | 0.00 | 46 | 1017.0 |
| 20260831173304 | 92 | 128 | 4.3 | 8.7 | 0.00 | 0.00 | 0.00 | 46 | 1017.0 |
| 20260831172803 | 91 | 78 | 4.3 | 8.7 | 0.00 | 0.00 | 0.00 | 46 | 1017.4 |
| 20260831172306 | 91 | 162 | 2.6 | 7.0 | 0.00 | 0.00 | 0.00 | 46 | 1017.4 |
| 20260831171804 | 91 | 122 | 1.7 | 5.2 | 0.00 | 0.00 | 0.00 | 47 | 1017.4 |
| 20260831171303 | 91 | 214 | 1.7 | 5.2 | 0.00 | 0.00 | 0.00 | 47 | 1017.4 |
| 20260831170804 | 90 | 212 | 1.7 | 5.2 | 0.00 | 0.00 | 0.00 | 47 | 1017.7 |
| 20260831170304 | 90 | 134 | 2.6 | 7.0 | 0.00 | 0.00 | 0.00 | 47 | 1017.7 |
| 20260831165804 | 89 | 145 | 2.6 | 11.3 | 0.00 | 0.00 | 0.00 | 48 | 1017.7 |
| 20260831165305 | 89 | 141 | 2.6 | 11.3 | 0.00 | 0.00 | 0.00 | 48 | 1017.7 |
| 20260831164303 | 89 | 241 | 1.7 | 4.3 | 0.00 | 0.00 | 0.00 | 49 | 1017.8 |
| 20260831163804 | 89 | 235 | 2.6 | 2.6 | 0.00 | 0.00 | 0.00 | 49 | 1017.8 |
| 20260831163304 | 89 | 117 | 2.6 | 4.3 | 0.00 | 0.00 | 0.00 | 49 | 1017.8 |
| 20260831162803 | 88 | 168 | 1.7 | 4.3 | 0.00 | 0.00 | 0.00 | 50 | 1017.6 |
| 20260831162306 | 88 | 280 | 2.6 | 6.1 | 0.00 | 0.00 | 0.00 | 49 | 1017.6 |
| 20260831161804 | 87 | 145 | 2.6 | 6.1 | 0.00 | 0.00 | 0.00 | 50 | 1017.6 |
| 20260831161304 | 87 | 302 | 2.6 | 5.2 | 0.00 | 0.00 | 0.00 | 50 | 1017.6 |
| 20260831160304 | 87 | 80 | 2.6 | 4.3 | 0.00 | 0.00 | 0.00 | 50 | 1017.6 |
| 20260831155805 | 86 | 100 | 1.7 | 4.3 | 0.00 | 0.00 | 0.00 | 52 | 1017.6 |
| 20260831155306 | 86 | 131 | 1.7 | 4.3 | 0.00 | 0.00 | 0.00 | 51 | 1017.6 |
| 20260831154804 | 86 | 78 | 1.7 | 2.6 | 0.00 | 0.00 | 0.00 | 53 | 1017.7 |
| 20260831154303 | 85 | 233 | 2.6 | 4.3 | 0.00 | 0.00 | 0.00 | 53 | 1017.7 |
| 20260831153804 | 85 | 145 | 2.6 | 4.3 | 0.00 | 0.00 | 0.00 | 53 | 1017.7 |
| 20260831152804 | 85 | 212 | 2.6 | 1.7 | 0.00 | 0.00 | 0.00 | 54 | 1017.4 |
| 20260831152306 | 84 | 66 | 2.6 | 7.8 | 0.00 | 0.00 | 0.00 | 54 | 1017.4 |
| 20260831151803 | 84 | 168 | 2.6 | 7.0 | 0.00 | 0.00 | 0.00 | 54 | 1017.4 |
| 20260831151303 | 84 | 145 | 2.6 | 7.0 | 0.00 | 0.00 | 0.00 | 54 | 1017.4 |
| 20260831150804 | 83 | 122 | 1.7 | 7.8 | 0.00 | 0.00 | 0.00 | 55 | 1017.5 |
| 20260831150304 | 83 | 90 | 2.6 | 7.8 | 0.00 | 0.00 | 0.00 | 55 | 1017.5 |
| 20260831145804 | 83 | 122 | 3.5 | 6.1 | 0.00 | 0.00 | 0.00 | 56 | 1017.5 |
| 20260831145306 | 82 | 100 | 2.6 | 6.1 | 0.00 | 0.00 | 0.00 | 57 | 1017.5 |
| 20260831144804 | 82 | 100 | 1.7 | 4.3 | 0.00 | 0.00 | 0.00 | 57 | 1017.7 |
| 20260831144304 | 82 | 21 | 0.9 | 4.3 | 0.00 | 0.00 | 0.00 | 58 | 1017.7 |
| 20260831143803 | 81 | 129 | 0.9 | 2.6 | 0.00 | 0.00 | 0.00 | 58 | 1017.7 |
| 20260831143304 | 81 | 280 | 1.7 | 4.3 | 0.00 | 0.00 | 0.00 | 58 | 1017.7 |
| 20260831142803 | 80 | 132 | 1.7 | 4.3 | 0.00 | 0.00 | 0.00 | 59 | 1017.8 |
| 20260831141804 | 80 | 41 | 1.7 | 5.2 | 0.00 | 0.00 | 0.00 | 59 | 1017.8 |
| 20260831141303 | 80 | 145 | 0.9 | 4.3 | 0.00 | 0.00 | 0.00 | 60 | 1017.8 |
| 20260831140304 | 79 | 163 | 0.9 | 6.1 | 0.00 | 0.00 | 0.00 | 60 | 1017.5 |
| 20260831135804 | 79 | 100 | 0.9 | 5.2 | 0.00 | 0.00 | 0.00 | 60 | 1017.5 |
| 20260831135306 | 78 | 248 | 0.9 | 4.3 | 0.00 | 0.00 | 0.00 | 61 | 1017.5 |
| 20260831134804 | 78 | 122 | 0.9 | 4.3 | 0.00 | 0.00 | 0.00 | 61 | 1017.5 |
| 20260831134304 | 78 | 235 | 0.9 | 2.6 | 0.00 | 0.00 | 0.00 | 62 | 1017.5 |
| 20260831133804 | 77 | 122 | 0.9 | 0.0 | 0.00 | 0.00 | 0.00 | 63 | 1017.5 |
| 20260831132803 | 76 | 280 | 0.0 | 2.6 | 0.00 | 0.00 | 0.00 | 67 | 1017.2 |
| 20260831132306 | 76 | 280 | 0.0 | 0.0 | 0.00 | 0.00 | 0.00 | 67 | 1017.2 |
| 20260831131804 | 76 | 145 | 0.9 | 1.7 | 0.00 | 0.00 | 0.00 | 67 | 1017.2 |
| 20260831130804 | 75 | 122 | 0.0 | 0.0 | 0.00 | 0.00 | 0.00 | 68 | 1016.9 |
| 20260831130304 | 75 | 78 | 0.0 | 0.0 | 0.00 | 0.00 | 0.00 | 68 | 1016.9 |
| 20260831125803 | 74 | 127 | 0.0 | 0.0 | 0.00 | 0.00 | 0.00 | 68 | 1016.9 |
| 20260831124804 | 74 | 275 | 0.0 | 0.0 | 0.00 | 0.00 | 0.00 | 69 | 1016.9 |
| 20260831124303 | 73 | 207 | 0.0 | 0.0 | 0.00 | 0.00 | 0.00 | 69 | 1016.9 |
| 20260831123803 | 73 | 135 | 0.0 | 0.0 | 0.00 | 0.00 | 0.00 | 69 | 1016.9 |
| 20260831123303 | 73 | 206 | 0.0 | 0.0 | 0.00 | 0.00 | 0.00 | 69 | 1016.9 |
| 20260831122804 | 73 | 78 | 0.0 | 0.0 | 0.00 | 0.00 | 0.00 | 70 | 1016.7 |
| 20260831122306 | 72 | 233 | 0.0 | 0.0 | 0.00 | 0.00 | 0.00 | 70 | 1016.7 |
| 20260831121304 | 72 | 145 | 0.0 | 0.0 | 0.00 | 0.00 | 0.00 | 70 | 1016.7 |
| 20260831120803 | 72 | 128 | 0.0 | 0.0 | 0.00 | 0.00 | 0.00 | 70 | 1016.7 |
| 20260831120303 | 72 | 49 | 0.0 | 0.0 | 0.00 | 0.00 | 0.00 | 70 | 1016.7 |
| 20260831115804 | 71 | 178 | 0.0 | 0.0 | 0.00 | 0.00 | 0.00 | 70 | 1016.7 |
| 20260831115306 | 71 | 98 | 0.0 | 0.0 | 0.00 | 0.00 | 0.00 | 70 | 1016.7 |
| 20260831114804 | 71 | 299 | 0.0 | 0.0 | 0.00 | 0.00 | 0.00 | 70 | 1016.6 |
| 20260831114303 | 72 | 252 | 0.9 | 0.0 | 0.00 | 0.00 | 0.00 | 70 | 1016.6 |
| 20260831113804 | 72 | 122 | 0.9 | 2.6 | 0.00 | 0.00 | 0.00 | 70 | 1016.6 |
| 20260831113304 | 72 | 101 | 0.0 | 2.6 | 0.00 | 0.00 | 0.00 | 70 | 1016.6 |
| 20260831112804 | 72 | 145 | 0.0 | 0.0 | 0.00 | 0.00 | 0.00 | 69 | 1016.6 |
| 20260831112306 | 72 | 107 | 0.0 | 0.0 | 0.00 | 0.00 | 0.00 | 69 | 1016.6 |
| 20260831111803 | 72 | 112 | 0.0 | 0.0 | 0.00 | 0.00 | 0.00 | 69 | 1016.6 |
| 20260831111304 | 72 | 104 | 0.0 | 0.0 | 0.00 | 0.00 | 0.00 | 69 | 1016.6 |
| 20260831110804 | 73 | 2 | 0.0 | 0.0 | 0.00 | 0.00 | 0.00 | 69 | 1016.6 |
| 20260831105804 | 73 | 140 | 0.0 | 0.0 | 0.00 | 0.00 | 0.00 | 69 | 1016.6 |
| 20260831105306 | 72 | 171 | 0.0 | 0.0 | 0.00 | 0.00 | 0.00 | 69 | 1016.6 |
| 20260831104803 | 72 | 177 | 0.0 | 0.0 | 0.00 | 0.00 | 0.00 | 69 | 1016.3 |
| 20260831103804 | 72 | 258 | 0.0 | 0.0 | 0.00 | 0.00 | 0.00 | 69 | 1016.3 |
| 20260831103303 | 69 | 163 | 0.0 | 1.7 | 0.00 | 0.00 | 0.00 | 69 | 1016.3 |
| 20260831102804 | 70 | 102 | 0.0 | 1.7 | 0.00 | 0.00 | 0.00 | 69 | 1016.7 |
| 20260831102305 | 70 | 100 | 0.0 | 0.0 | 0.00 | 0.00 | 0.00 | 68 | 1016.8 |
| 20260831101804 | 70 | 153 | 0.0 | 0.0 | 0.00 | 0.00 | 0.00 | 69 | 1016.8 |
| 20260831100804 | 70 | 147 | 0.0 | 0.0 | 0.00 | 0.00 | 0.00 | 68 | 1017.0 |
| 20260831095804 | 70 | 175 | 0.0 | 0.0 | 0.00 | 0.00 | 0.00 | 68 | 1017.0 |
| 20260831094804 | 70 | 141 | 0.0 | 0.0 | 0.00 | 0.00 | 0.00 | 68 | 1016.8 |
| 20260831094303 | 70 | 144 | 0.0 | 0.0 | 0.00 | 0.00 | 0.00 | 68 | 1016.8 |
| 20260831093804 | 70 | 92 | 0.0 | 0.0 | 0.00 | 0.00 | 0.00 | 67 | 1016.8 |
| 20260831092306 | 70 | 280 | 0.0 | 0.0 | 0.00 | 0.00 | 0.00 | 66 | 1016.7 |
| 20260831091804 | 70 | 190 | 0.0 | 0.0 | 0.00 | 0.00 | 0.00 | 66 | 1016.7 |
| 20260831091304 | 71 | 121 | 0.0 | 0.0 | 0.00 | 0.00 | 0.00 | 66 | 1016.7 |
| 20260831085804 | 71 | 78 | 0.0 | 0.0 | 0.00 | 0.00 | 0.00 | 65 | 1016.4 |
| 20260831085306 | 71 | 122 | 0.0 | 0.0 | 0.00 | 0.00 | 0.00 | 66 | 1016.4 |
| 20260831084804 | 71 | 170 | 0.0 | 0.0 | 0.00 | 0.00 | 0.00 | 65 | 1016.3 |
| 20260831084304 | 71 | 122 | 0.0 | 0.0 | 0.00 | 0.00 | 0.00 | 66 | 1016.3 |
| 20260831083804 | 71 | 197 | 0.0 | 0.0 | 0.00 | 0.00 | 0.00 | 65 | 1016.3 |
| 20260831083304 | 71 | 142 | 0.0 | 0.0 | 0.00 | 0.00 | 0.00 | 65 | 1016.3 |
| 20260831082804 | 71 | 172 | 0.0 | 0.0 | 0.00 | 0.00 | 0.00 | 65 | 1016.4 |
| 20260831082306 | 71 | 144 | 0.0 | 0.0 | 0.00 | 0.00 | 0.00 | 66 | 1016.4 |
| 20260831080804 | 71 | 287 | 0.0 | 0.0 | 0.00 | 0.00 | 0.00 | 66 | 1016.2 |
| 20260831080304 | 71 | 301 | 0.0 | 0.0 | 0.00 | 0.00 | 0.00 | 67 | 1016.2 |
| 20260831075803 | 71 | 85 | 0.0 | 0.0 | 0.00 | 0.00 | 0.00 | 66 | 1016.2 |
| 20260831075306 | 71 | 302 | 0.0 | 0.0 | 0.00 | 0.00 | 0.00 | 67 | 1016.2 |
| 20260831074804 | 71 | 31 | 0.0 | 0.0 | 0.00 | 0.00 | 0.00 | 67 | 1016.3 |
| 20260831074304 | 71 | 146 | 0.0 | 0.0 | 0.00 | 0.00 | 0.00 | 67 | 1016.3 |
| 20260831073804 | 71 | 153 | 0.0 | 0.0 | 0.00 | 0.00 | 0.00 | 67 | 1016.3 |
| 20260831072804 | 72 | 220 | 0.0 | 0.0 | 0.00 | 0.00 | 0.00 | 67 | 1016.3 |
| 20260831072306 | 72 | 147 | 0.0 | 0.0 | 0.00 | 0.00 | 0.00 | 67 | 1016.3 |
| 20260831071804 | 71 | 117 | 0.0 | 0.0 | 0.00 | 0.00 | 0.00 | 68 | 1016.3 |
| 20260831071305 | 71 | 144 | 0.0 | 0.0 | 0.00 | 0.00 | 0.00 | 68 | 1016.3 |
| 20260831070804 | 71 | 226 | 0.0 | 0.0 | 0.00 | 0.00 | 0.00 | 68 | 1016.6 |
| 20260831070304 | 71 | 168 | 0.0 | 0.0 | 0.00 | 0.00 | 0.00 | 68 | 1016.6 |
| 20260831065804 | 71 | 147 | 0.0 | 0.0 | 0.00 | 0.00 | 0.00 | 68 | 1016.6 |
| 20260831065306 | 71 | 144 | 0.0 | 0.0 | 0.00 | 0.00 | 0.00 | 68 | 1016.6 |
| 20260831064304 | 71 | 145 | 0.0 | 0.0 | 0.00 | 0.00 | 0.00 | 68 | 1016.9 |